User: anonymous   Login
Location: Unspecified
(0.0000°N, 0.0000°E)
Time: 01:09:50
(UTC+00:00)
Language:

Kosmos-2026 - Orbit

View from above orbital plane
View from above orbital plane
View from above satellite
View from above satellite

Ground track
Ground track

The orbit data is extracted from the following two-line orbital elements,

1 20045U 89042A   18200.62015571 +.00000018 +00000-0 +21827-5 0  9996
2 20045 082.9393 033.3941 0041235 116.4443 304.7744 13.76018850461883
Epoch (UTC): 19 July 2018 14:53:01
Eccentricity: 0.0041235
inclination: 82.9393°
perigee height: 948 km
apogee height: 1008 km
right ascension of ascending node: 33.3941°
argument of perigee: 116.4443°
revolutions per day: 13.76018850
mean anomaly at epoch: 304.7744°
orbit number at epoch: 46188

The dashed part of the orbit path shows where the satellite is in the earth's shadow,  

DLR